Year,Month,Day,Hour,Minute,Value (Times are PST for temperature in C)
2013,04,21,00,00,7.40
2013,04,21,00,01,7.40
2013,04,21,00,02,7.40
2013,04,21,00,03,7.40
2013,04,21,00,04,7.40
2013,04,21,00,05,7.40
2013,04,21,00,06,7.40
2013,04,21,00,07,7.40
2013,04,21,00,08,7.40
2013,04,21,00,09,7.40
2013,04,21,00,10,7.40
2013,04,21,00,11,7.40
2013,04,21,00,12,7.40
2013,04,21,00,13,7.40
2013,04,21,00,14,7.50
2013,04,21,00,15,7.50
2013,04,21,00,16,7.50
2013,04,21,00,17,7.50
2013,04,21,00,18,7.40
2013,04,21,00,19,7.40
2013,04,21,00,20,7.40
2013,04,21,00,21,7.40
2013,04,21,00,22,7.40
2013,04,21,00,23,7.40
2013,04,21,00,24,7.40
2013,04,21,00,25,7.50
2013,04,21,00,26,7.40
2013,04,21,00,27,7.50
2013,04,21,00,28,7.40
2013,04,21,00,29,7.40
2013,04,21,00,30,7.40
2013,04,21,00,31,7.40
2013,04,21,00,32,7.40
2013,04,21,00,33,7.40
2013,04,21,00,34,7.40
2013,04,21,00,35,7.40
2013,04,21,00,36,7.40
2013,04,21,00,37,7.40
2013,04,21,00,38,7.40
2013,04,21,00,39,7.40
2013,04,21,00,40,7.40
2013,04,21,00,41,7.50
2013,04,21,00,42,7.50
2013,04,21,00,43,7.50
2013,04,21,00,44,7.50
2013,04,21,00,45,7.50
2013,04,21,00,46,7.50
2013,04,21,00,47,7.50
2013,04,21,00,48,7.50
2013,04,21,00,49,7.50
2013,04,21,00,50,7.40
2013,04,21,00,51,7.40
2013,04,21,00,52,7.40
2013,04,21,00,53,7.40
2013,04,21,00,54,7.40
2013,04,21,00,55,7.40
2013,04,21,00,56,7.50
2013,04,21,00,57,7.50
2013,04,21,00,58,7.40
2013,04,21,00,59,7.40
2013,04,21,01,00,7.40
2013,04,21,01,01,7.40
2013,04,21,01,02,7.40
2013,04,21,01,03,7.40
2013,04,21,01,04,7.40
2013,04,21,01,05,7.40
2013,04,21,01,06,7.40
2013,04,21,01,07,7.40
2013,04,21,01,08,7.40
2013,04,21,01,09,7.40
2013,04,21,01,10,7.40
2013,04,21,01,11,7.40
2013,04,21,01,12,7.40
2013,04,21,01,13,7.40
2013,04,21,01,14,7.40
2013,04,21,01,15,7.40
2013,04,21,01,16,7.40
2013,04,21,01,17,7.40
2013,04,21,01,18,7.30
2013,04,21,01,19,7.30
2013,04,21,01,20,7.30
2013,04,21,01,21,7.30
2013,04,21,01,22,7.30
2013,04,21,01,23,7.30
2013,04,21,01,24,7.30
2013,04,21,01,25,7.30
2013,04,21,01,26,7.30
2013,04,21,01,27,7.30
2013,04,21,01,28,7.30
2013,04,21,01,29,7.40
2013,04,21,01,30,7.40
2013,04,21,01,31,7.40
2013,04,21,01,32,7.40
2013,04,21,01,33,7.40
2013,04,21,01,34,7.40
2013,04,21,01,35,7.40
2013,04,21,01,36,7.40
2013,04,21,01,37,7.50
2013,04,21,01,38,7.50
2013,04,21,01,39,7.50
2013,04,21,01,40,7.50
2013,04,21,01,41,7.50
2013,04,21,01,42,7.50
2013,04,21,01,43,7.50
2013,04,21,01,44,7.50
2013,04,21,01,45,7.50
2013,04,21,01,46,7.50
2013,04,21,01,47,7.50
2013,04,21,01,48,7.50
2013,04,21,01,49,7.50
2013,04,21,01,50,7.50
2013,04,21,01,51,7.40
2013,04,21,01,52,7.40
2013,04,21,01,53,7.40
2013,04,21,01,54,7.40
2013,04,21,01,55,7.40
2013,04,21,01,56,7.40
2013,04,21,01,57,7.40
2013,04,21,01,58,7.40
2013,04,21,01,59,7.40
2013,04,21,02,00,7.40
2013,04,21,02,01,7.40
2013,04,21,02,02,7.30
2013,04,21,02,03,7.30
2013,04,21,02,04,7.30
2013,04,21,02,05,7.30
2013,04,21,02,06,7.30
2013,04,21,02,07,7.30
2013,04,21,02,08,7.30
2013,04,21,02,09,7.30
2013,04,21,02,10,7.30
2013,04,21,02,11,7.30
2013,04,21,02,12,7.30
2013,04,21,02,13,7.20
2013,04,21,02,14,7.20
2013,04,21,02,15,7.20
2013,04,21,02,16,7.20
2013,04,21,02,17,7.20
2013,04,21,02,18,7.20
2013,04,21,02,19,7.20
2013,04,21,02,20,7.20
2013,04,21,02,21,7.20
2013,04,21,02,22,7.20
2013,04,21,02,23,7.10
2013,04,21,02,24,7.10
2013,04,21,02,25,7.10
2013,04,21,02,26,7.10
2013,04,21,02,27,7.10
2013,04,21,02,28,7.10
2013,04,21,02,29,7.10
2013,04,21,02,30,7.10
2013,04,21,02,31,7.00
2013,04,21,02,32,7.00
2013,04,21,02,33,7.00
2013,04,21,02,34,7.00
2013,04,21,02,35,6.90
2013,04,21,02,36,6.90
2013,04,21,02,37,6.90
2013,04,21,02,38,6.90
2013,04,21,02,39,6.90
2013,04,21,02,40,6.90
2013,04,21,02,41,6.90
2013,04,21,02,42,6.90
2013,04,21,02,43,6.90
2013,04,21,02,44,6.80
2013,04,21,02,45,6.80
2013,04,21,02,46,6.80
2013,04,21,02,47,6.80
2013,04,21,02,48,6.80
2013,04,21,02,49,6.80
2013,04,21,02,50,6.80
2013,04,21,02,51,6.80
2013,04,21,02,52,6.80
2013,04,21,02,53,6.80
2013,04,21,02,54,6.80
2013,04,21,02,55,6.80
2013,04,21,02,56,6.80
2013,04,21,02,57,6.80
2013,04,21,02,58,6.80
2013,04,21,02,59,6.80
2013,04,21,03,00,6.80
2013,04,21,03,01,6.80
2013,04,21,03,02,6.80
2013,04,21,03,03,6.70
2013,04,21,03,04,6.70
2013,04,21,03,05,6.70
2013,04,21,03,06,6.70
2013,04,21,03,07,6.70
2013,04,21,03,08,6.70
2013,04,21,03,09,6.70
2013,04,21,03,10,6.70
2013,04,21,03,11,6.70
2013,04,21,03,12,6.70
2013,04,21,03,13,6.70
2013,04,21,03,14,6.70
2013,04,21,03,15,6.70
2013,04,21,03,16,6.70
2013,04,21,03,17,6.70
2013,04,21,03,18,6.70
2013,04,21,03,19,6.70
2013,04,21,03,20,6.70
2013,04,21,03,21,6.70
2013,04,21,03,22,6.70
2013,04,21,03,23,6.70
2013,04,21,03,24,6.70
2013,04,21,03,25,6.60
2013,04,21,03,26,6.60
2013,04,21,03,27,6.60
2013,04,21,03,28,6.60
2013,04,21,03,29,6.60
2013,04,21,03,30,6.60
2013,04,21,03,31,6.60
2013,04,21,03,32,6.60
2013,04,21,03,33,6.60
2013,04,21,03,34,6.50
2013,04,21,03,35,6.50
2013,04,21,03,36,6.50
2013,04,21,03,37,6.50
2013,04,21,03,38,6.50
2013,04,21,03,39,6.50
2013,04,21,03,40,6.50
2013,04,21,03,41,6.50
2013,04,21,03,42,6.50
2013,04,21,03,43,6.50
2013,04,21,03,44,6.50
2013,04,21,03,45,6.50
2013,04,21,03,46,6.50
2013,04,21,03,47,6.60
2013,04,21,03,48,6.60
2013,04,21,03,49,6.60
2013,04,21,03,50,6.60
2013,04,21,03,51,6.60
2013,04,21,03,52,6.60
2013,04,21,03,53,6.60
2013,04,21,03,54,6.70
2013,04,21,03,55,6.70
2013,04,21,03,56,6.70
2013,04,21,03,57,6.70
2013,04,21,03,58,6.70
2013,04,21,03,59,6.70
2013,04,21,04,00,6.70
2013,04,21,04,01,6.80
2013,04,21,04,02,6.80
2013,04,21,04,03,6.80
2013,04,21,04,04,6.80
2013,04,21,04,05,6.80
2013,04,21,04,06,6.80
2013,04,21,04,07,6.70
2013,04,21,04,08,6.70
2013,04,21,04,09,6.70
2013,04,21,04,10,6.70
2013,04,21,04,11,6.70
2013,04,21,04,12,6.60
2013,04,21,04,13,6.60
2013,04,21,04,14,6.60
2013,04,21,04,15,6.60
2013,04,21,04,16,6.50
2013,04,21,04,17,6.50
2013,04,21,04,18,6.50
2013,04,21,04,19,6.40
2013,04,21,04,20,6.40
2013,04,21,04,21,6.40
2013,04,21,04,22,6.40
2013,04,21,04,23,6.40
2013,04,21,04,24,6.30
2013,04,21,04,25,6.30
2013,04,21,04,26,6.30
2013,04,21,04,27,6.30
2013,04,21,04,28,6.30
2013,04,21,04,29,6.30
2013,04,21,04,30,6.20
2013,04,21,04,31,6.20
2013,04,21,04,32,6.20
2013,04,21,04,33,6.10
2013,04,21,04,34,6.10
2013,04,21,04,35,6.00
2013,04,21,04,36,6.00
2013,04,21,04,37,6.00
2013,04,21,04,38,5.90
2013,04,21,04,39,5.90
2013,04,21,04,40,5.90
2013,04,21,04,41,5.90
2013,04,21,04,42,5.90
2013,04,21,04,43,5.80
2013,04,21,04,44,5.80
2013,04,21,04,45,5.80
2013,04,21,04,46,5.80
2013,04,21,04,47,5.80
2013,04,21,04,48,5.80
2013,04,21,04,49,5.80
2013,04,21,04,50,5.80
2013,04,21,04,51,5.80
2013,04,21,04,52,5.80
2013,04,21,04,53,5.80
2013,04,21,04,54,5.70
2013,04,21,04,55,5.70
2013,04,21,04,56,5.70
2013,04,21,04,57,5.70
2013,04,21,04,58,5.70
2013,04,21,04,59,5.70
2013,04,21,05,00,5.60
2013,04,21,05,01,5.60
2013,04,21,05,02,5.60
2013,04,21,05,03,5.60
2013,04,21,05,04,5.60
2013,04,21,05,05,5.60
2013,04,21,05,06,5.50
2013,04,21,05,07,5.50
2013,04,21,05,08,5.50
2013,04,21,05,09,5.50
2013,04,21,05,10,5.40
2013,04,21,05,11,5.40
2013,04,21,05,12,5.40
2013,04,21,05,13,5.40
2013,04,21,05,14,5.40
2013,04,21,05,15,5.40
2013,04,21,05,16,5.30
2013,04,21,05,17,5.30
2013,04,21,05,18,5.30
2013,04,21,05,19,5.30
2013,04,21,05,20,5.30
2013,04,21,05,21,5.30
2013,04,21,05,22,5.20
2013,04,21,05,23,5.20
2013,04,21,05,24,5.20
2013,04,21,05,25,5.20
2013,04,21,05,26,5.10
2013,04,21,05,27,5.10
2013,04,21,05,28,5.10
2013,04,21,05,29,5.10
2013,04,21,05,30,5.10
2013,04,21,05,31,5.00
2013,04,21,05,32,5.00
2013,04,21,05,33,5.00
2013,04,21,05,34,4.90
2013,04,21,05,35,4.90
2013,04,21,05,36,4.90
2013,04,21,05,37,4.90
2013,04,21,05,38,4.90
2013,04,21,05,39,4.80
2013,04,21,05,40,4.80
2013,04,21,05,41,4.80
2013,04,21,05,42,4.80
2013,04,21,05,43,4.80
2013,04,21,05,44,4.80
2013,04,21,05,45,4.70
2013,04,21,05,46,4.70
2013,04,21,05,47,4.70
2013,04,21,05,48,4.70
2013,04,21,05,49,4.60
2013,04,21,05,50,4.60
2013,04,21,05,51,4.60
2013,04,21,05,52,4.60
2013,04,21,05,53,4.60
2013,04,21,05,54,4.60
2013,04,21,05,55,4.50
2013,04,21,05,56,4.50
2013,04,21,05,57,4.50
2013,04,21,05,58,4.50
2013,04,21,05,59,4.50
2013,04,21,06,00,4.40
2013,04,21,06,01,4.40
2013,04,21,06,02,4.40
2013,04,21,06,03,4.40
2013,04,21,06,04,4.40
2013,04,21,06,05,4.30
2013,04,21,06,06,4.30
2013,04,21,06,07,4.30
2013,04,21,06,08,4.30
2013,04,21,06,09,4.30
2013,04,21,06,10,4.20
2013,04,21,06,11,4.20
2013,04,21,06,12,4.20
2013,04,21,06,13,4.20
2013,04,21,06,14,4.20
2013,04,21,06,15,4.10
2013,04,21,06,16,4.10
2013,04,21,06,17,4.10
2013,04,21,06,18,4.10
2013,04,21,06,19,4.10
2013,04,21,06,20,4.10
2013,04,21,06,21,4.10
2013,04,21,06,22,4.10
2013,04,21,06,23,4.10
2013,04,21,06,24,4.10
2013,04,21,06,25,4.10
2013,04,21,06,26,4.10
2013,04,21,06,27,4.10
2013,04,21,06,28,4.10
2013,04,21,06,29,4.10
2013,04,21,06,30,4.10
2013,04,21,06,31,4.10
2013,04,21,06,32,4.10
2013,04,21,06,33,4.10
2013,04,21,06,34,4.10
2013,04,21,06,35,4.10
2013,04,21,06,36,4.10
2013,04,21,06,37,4.10
2013,04,21,06,38,4.10
2013,04,21,06,39,4.10
2013,04,21,06,40,4.10
2013,04,21,06,41,4.10
2013,04,21,06,42,4.10
2013,04,21,06,43,4.10
2013,04,21,06,44,4.10
2013,04,21,06,45,4.10
2013,04,21,06,46,4.10
2013,04,21,06,47,4.10
2013,04,21,06,48,4.10
2013,04,21,06,49,4.10
2013,04,21,06,50,4.10
2013,04,21,06,51,4.10
2013,04,21,06,52,4.20
2013,04,21,06,53,4.10
2013,04,21,06,54,4.20
2013,04,21,06,55,4.20
2013,04,21,06,56,4.20
2013,04,21,06,57,4.20
2013,04,21,06,58,4.20
2013,04,21,06,59,4.20
2013,04,21,07,00,4.20
2013,04,21,07,01,4.30
2013,04,21,07,02,4.30
2013,04,21,07,03,4.30
2013,04,21,07,04,4.40
2013,04,21,07,05,4.40
2013,04,21,07,06,4.40
2013,04,21,07,07,4.50
2013,04,21,07,08,4.50
2013,04,21,07,09,4.60
2013,04,21,07,10,4.60
2013,04,21,07,11,4.60
2013,04,21,07,12,4.60
2013,04,21,07,13,4.70
2013,04,21,07,14,4.70
2013,04,21,07,15,4.70
2013,04,21,07,16,4.70
2013,04,21,07,17,4.70
2013,04,21,07,18,4.80
2013,04,21,07,19,4.80
2013,04,21,07,20,4.90
2013,04,21,07,21,4.90
2013,04,21,07,22,5.00
2013,04,21,07,23,5.10
2013,04,21,07,24,5.10
2013,04,21,07,25,5.10
2013,04,21,07,26,5.20
2013,04,21,07,27,5.30
2013,04,21,07,28,5.30
2013,04,21,07,29,5.40
2013,04,21,07,30,5.40
2013,04,21,07,31,5.50
2013,04,21,07,32,5.60
2013,04,21,07,33,5.60
2013,04,21,07,34,5.60
2013,04,21,07,35,5.70
2013,04,21,07,36,5.70
2013,04,21,07,37,5.80
2013,04,21,07,38,5.80
2013,04,21,07,39,5.90
2013,04,21,07,40,5.90
2013,04,21,07,41,5.90
2013,04,21,07,42,6.00
2013,04,21,07,43,6.00
2013,04,21,07,44,6.10
2013,04,21,07,45,6.10
2013,04,21,07,46,6.10
2013,04,21,07,47,6.20
2013,04,21,07,48,6.20
2013,04,21,07,49,6.20
2013,04,21,07,50,6.20
2013,04,21,07,51,6.30
2013,04,21,07,52,6.30
2013,04,21,07,53,6.30
2013,04,21,07,54,6.30
2013,04,21,07,55,6.30
2013,04,21,07,56,6.40
2013,04,21,07,57,6.40
2013,04,21,07,58,6.40
2013,04,21,07,59,6.40
2013,04,21,08,00,6.40
2013,04,21,08,01,6.50
2013,04,21,08,02,6.50
2013,04,21,08,03,6.50
2013,04,21,08,04,6.60
2013,04,21,08,05,6.60
2013,04,21,08,06,6.60
2013,04,21,08,07,6.60
2013,04,21,08,08,6.60
2013,04,21,08,09,6.70
2013,04,21,08,10,6.70
2013,04,21,08,11,6.70
2013,04,21,08,12,6.70
2013,04,21,08,13,6.70
2013,04,21,08,14,6.80
2013,04,21,08,15,6.80
2013,04,21,08,16,6.80
2013,04,21,08,17,6.80
2013,04,21,08,18,6.80
2013,04,21,08,19,6.90
2013,04,21,08,20,6.90
2013,04,21,08,21,6.90
2013,04,21,08,22,7.00
2013,04,21,08,23,7.00
2013,04,21,08,24,7.00
2013,04,21,08,25,7.00
2013,04,21,08,26,7.00
2013,04,21,08,27,7.10
2013,04,21,08,28,7.10
2013,04,21,08,29,7.10
2013,04,21,08,30,7.10
2013,04,21,08,31,7.10
2013,04,21,08,32,7.20
2013,04,21,08,33,7.20
2013,04,21,08,34,7.20
2013,04,21,08,35,7.20
2013,04,21,08,36,7.20
2013,04,21,08,37,7.20
2013,04,21,08,38,7.30
2013,04,21,08,39,7.30
2013,04,21,08,40,7.30
2013,04,21,08,41,7.30
2013,04,21,08,42,7.30
2013,04,21,08,43,7.40
2013,04,21,08,44,7.40
2013,04,21,08,45,7.40
2013,04,21,08,46,7.40
2013,04,21,08,47,7.40
2013,04,21,08,48,7.40
2013,04,21,08,49,7.40
2013,04,21,08,50,7.50
2013,04,21,08,51,7.50
2013,04,21,08,52,7.50
2013,04,21,08,53,7.50
2013,04,21,08,54,7.50
2013,04,21,08,55,7.60
2013,04,21,08,56,7.60
2013,04,21,08,57,7.60
2013,04,21,08,58,7.60
2013,04,21,08,59,7.60
2013,04,21,09,00,7.60
2013,04,21,09,01,7.70
2013,04,21,09,02,7.70
2013,04,21,09,03,7.70
2013,04,21,09,04,7.70
2013,04,21,09,05,7.80
2013,04,21,09,06,7.80
2013,04,21,09,07,7.80
2013,04,21,09,08,7.80
2013,04,21,09,09,7.80
2013,04,21,09,10,7.80
2013,04,21,09,11,7.90
2013,04,21,09,12,7.90
2013,04,21,09,13,7.90
2013,04,21,09,14,7.90
2013,04,21,09,15,7.90
2013,04,21,09,16,8.00
2013,04,21,09,17,8.00
2013,04,21,09,18,8.10
2013,04,21,09,19,8.10
2013,04,21,09,20,8.10
2013,04,21,09,21,8.10
2013,04,21,09,22,8.20
2013,04,21,09,23,8.20
2013,04,21,09,24,8.20
2013,04,21,09,25,8.20
2013,04,21,09,26,8.20
2013,04,21,09,27,8.30
2013,04,21,09,28,8.30
2013,04,21,09,29,8.30
2013,04,21,09,30,8.40
2013,04,21,09,31,8.40
2013,04,21,09,32,8.50
2013,04,21,09,33,8.60
2013,04,21,09,34,8.60
2013,04,21,09,35,8.70
2013,04,21,09,36,8.70
2013,04,21,09,37,8.80
2013,04,21,09,38,8.80
2013,04,21,09,39,8.80
2013,04,21,09,40,8.80
2013,04,21,09,41,8.90
2013,04,21,09,42,8.90
2013,04,21,09,43,8.90
2013,04,21,09,44,9.00
2013,04,21,09,45,9.00
2013,04,21,09,46,9.00
2013,04,21,09,47,9.10
2013,04,21,09,48,9.10
2013,04,21,09,49,9.20
2013,04,21,09,50,9.20
2013,04,21,09,51,9.20
2013,04,21,09,52,9.20
2013,04,21,09,53,9.20
2013,04,21,09,54,9.20
2013,04,21,09,55,9.20
2013,04,21,09,56,9.30
2013,04,21,09,57,9.30
2013,04,21,09,58,9.30
2013,04,21,09,59,9.30
2013,04,21,10,00,9.30
2013,04,21,10,01,9.30
2013,04,21,10,02,9.30
2013,04,21,10,03,9.40
2013,04,21,10,04,9.40
2013,04,21,10,05,9.40
2013,04,21,10,06,9.40
2013,04,21,10,07,9.40
2013,04,21,10,08,9.50
2013,04,21,10,09,9.50
2013,04,21,10,10,9.50
2013,04,21,10,11,9.50
2013,04,21,10,12,9.50
2013,04,21,10,13,9.50
2013,04,21,10,14,9.50
2013,04,21,10,15,9.50
2013,04,21,10,16,9.50
2013,04,21,10,17,9.50
2013,04,21,10,18,9.50
2013,04,21,10,19,9.60
2013,04,21,10,20,9.60
2013,04,21,10,21,9.60
2013,04,21,10,22,9.60
2013,04,21,10,23,9.60
2013,04,21,10,24,9.60
2013,04,21,10,25,9.60
2013,04,21,10,26,9.60
2013,04,21,10,27,9.60
2013,04,21,10,28,9.70
2013,04,21,10,29,9.70
2013,04,21,10,30,9.70
2013,04,21,10,31,9.80
2013,04,21,10,32,9.80
2013,04,21,10,33,9.80
2013,04,21,10,34,9.80
2013,04,21,10,35,9.80
2013,04,21,10,36,9.90
2013,04,21,10,37,9.90
2013,04,21,10,38,9.90
2013,04,21,10,39,9.90
2013,04,21,10,40,9.90
2013,04,21,10,41,10.00
2013,04,21,10,42,10.00
2013,04,21,10,43,10.00
2013,04,21,10,44,10.10
2013,04,21,10,45,10.10
2013,04,21,10,46,10.10
2013,04,21,10,47,10.20
2013,04,21,10,48,10.20
2013,04,21,10,49,10.20
2013,04,21,10,50,10.20
2013,04,21,10,51,10.20
2013,04,21,10,52,10.20
2013,04,21,10,53,10.20
2013,04,21,10,54,10.20
2013,04,21,10,55,10.30
2013,04,21,10,56,10.30
2013,04,21,10,57,10.30
2013,04,21,10,58,10.40
2013,04,21,10,59,10.40
2013,04,21,11,00,10.50
2013,04,21,11,01,10.50
2013,04,21,11,02,10.60
2013,04,21,11,03,10.70
2013,04,21,11,04,10.70
2013,04,21,11,05,10.70
2013,04,21,11,06,10.80
2013,04,21,11,07,10.80
2013,04,21,11,08,10.80
2013,04,21,11,09,10.80
2013,04,21,11,10,10.70
2013,04,21,11,11,10.70
2013,04,21,11,12,10.70
2013,04,21,11,13,10.60
2013,04,21,11,14,10.60
2013,04,21,11,15,10.60
2013,04,21,11,16,10.50
2013,04,21,11,17,10.50
2013,04,21,11,18,10.40
2013,04,21,11,19,10.40
2013,04,21,11,20,10.40
2013,04,21,11,21,10.40
2013,04,21,11,22,10.30
2013,04,21,11,23,10.30
2013,04,21,11,24,10.30
2013,04,21,11,25,10.30
2013,04,21,11,26,10.30
2013,04,21,11,27,10.30
2013,04,21,11,28,10.30
2013,04,21,11,29,10.30
2013,04,21,11,30,10.30
2013,04,21,11,31,10.30
2013,04,21,11,32,10.20
2013,04,21,11,33,10.20
2013,04,21,11,34,10.20
2013,04,21,11,35,10.20
2013,04,21,11,36,10.20
2013,04,21,11,37,10.20
2013,04,21,11,38,10.20
2013,04,21,11,39,10.20
2013,04,21,11,40,10.20
2013,04,21,11,41,10.30
2013,04,21,11,42,10.30
2013,04,21,11,43,10.30
2013,04,21,11,44,10.30
2013,04,21,11,45,10.30
2013,04,21,11,46,10.30
2013,04,21,11,47,10.30
2013,04,21,11,48,10.20
2013,04,21,11,49,10.20
2013,04,21,11,50,10.20
2013,04,21,11,51,10.20
2013,04,21,11,52,10.20
2013,04,21,11,53,10.10
2013,04,21,11,54,10.10
2013,04,21,11,55,10.00
2013,04,21,11,56,10.00
2013,04,21,11,57,9.90
2013,04,21,11,58,9.80
2013,04,21,11,59,9.70
2013,04,21,12,00,9.60
2013,04,21,12,01,9.50
2013,04,21,12,02,9.30
2013,04,21,12,03,9.20
2013,04,21,12,04,9.20
2013,04,21,12,05,9.10
2013,04,21,12,06,9.00
2013,04,21,12,07,8.90
2013,04,21,12,08,8.90
2013,04,21,12,09,8.80
2013,04,21,12,10,8.80
2013,04,21,12,11,8.80
2013,04,21,12,12,8.80
2013,04,21,12,13,8.80
2013,04,21,12,14,8.80
2013,04,21,12,15,8.80
2013,04,21,12,16,8.80
2013,04,21,12,17,8.80
2013,04,21,12,18,8.80
2013,04,21,12,19,8.80
2013,04,21,12,20,8.80
2013,04,21,12,21,8.80
2013,04,21,12,22,8.80
2013,04,21,12,23,8.80
2013,04,21,12,24,8.90
2013,04,21,12,25,8.90
2013,04,21,12,26,9.00
2013,04,21,12,27,9.10
2013,04,21,12,28,9.10
2013,04,21,12,29,9.10
2013,04,21,12,30,9.20
2013,04,21,12,31,9.20
2013,04,21,12,32,9.20
2013,04,21,12,33,9.20
2013,04,21,12,34,9.20
2013,04,21,12,35,9.20
2013,04,21,12,36,9.20
2013,04,21,12,37,9.20
2013,04,21,12,38,9.20
2013,04,21,12,39,9.10
2013,04,21,12,40,9.10
2013,04,21,12,41,9.00
2013,04,21,12,42,8.90
2013,04,21,12,43,8.90
2013,04,21,12,44,8.80
2013,04,21,12,45,8.70
2013,04,21,12,46,8.70
2013,04,21,12,47,8.60
2013,04,21,12,48,8.60
2013,04,21,12,49,8.50
2013,04,21,12,50,8.40
2013,04,21,12,51,8.40
2013,04,21,12,52,8.30
2013,04,21,12,53,8.30
2013,04,21,12,54,8.20
2013,04,21,12,55,8.20
2013,04,21,12,56,8.20
2013,04,21,12,57,8.10
2013,04,21,12,58,8.10
2013,04,21,12,59,8.10
2013,04,21,13,00,8.10
2013,04,21,13,01,8.10
2013,04,21,13,02,8.00
2013,04,21,13,03,8.00
2013,04,21,13,04,8.00
2013,04,21,13,05,8.00
2013,04,21,13,06,8.00
2013,04,21,13,07,8.10
2013,04,21,13,08,8.10
2013,04,21,13,09,8.10
2013,04,21,13,10,8.20
2013,04,21,13,11,8.20
2013,04,21,13,12,8.30
2013,04,21,13,13,8.40
2013,04,21,13,14,8.50
2013,04,21,13,15,8.50
2013,04,21,13,16,8.60
2013,04,21,13,17,8.70
2013,04,21,13,18,8.80
2013,04,21,13,19,8.80
2013,04,21,13,20,8.80
2013,04,21,13,21,8.80
2013,04,21,13,22,8.80
2013,04,21,13,23,8.80
2013,04,21,13,24,8.80
2013,04,21,13,25,8.80
2013,04,21,13,26,8.80
2013,04,21,13,27,8.80
2013,04,21,13,28,8.80
2013,04,21,13,29,8.80
2013,04,21,13,30,8.80
2013,04,21,13,31,8.80
2013,04,21,13,32,8.80
2013,04,21,13,33,8.80
2013,04,21,13,34,8.80
2013,04,21,13,35,8.90
2013,04,21,13,36,8.90
2013,04,21,13,37,8.90
2013,04,21,13,38,9.00
2013,04,21,13,39,9.00
2013,04,21,13,40,9.10
2013,04,21,13,41,9.10
2013,04,21,13,42,9.20
2013,04,21,13,43,9.20
2013,04,21,13,44,9.20
2013,04,21,13,45,9.30
2013,04,21,13,46,9.30
2013,04,21,13,47,9.30
2013,04,21,13,48,9.30
2013,04,21,13,49,9.20
2013,04,21,13,50,9.20
2013,04,21,13,51,9.20
2013,04,21,13,52,9.20
2013,04,21,13,53,9.30
2013,04,21,13,54,9.30
2013,04,21,13,55,9.30
2013,04,21,13,56,9.20
2013,04,21,13,57,9.20
2013,04,21,13,58,9.20
2013,04,21,13,59,9.20
2013,04,21,14,00,9.20
2013,04,21,14,01,9.20
2013,04,21,14,02,9.20
2013,04,21,14,03,9.20
2013,04,21,14,04,9.20
2013,04,21,14,05,9.20
2013,04,21,14,06,9.20
2013,04,21,14,07,9.20
2013,04,21,14,08,9.20
2013,04,21,14,09,9.00
2013,04,21,14,10,8.90
2013,04,21,14,11,8.70
2013,04,21,14,12,8.60
2013,04,21,14,13,8.40
2013,04,21,14,14,8.30
2013,04,21,14,15,8.20
2013,04,21,14,16,8.10
2013,04,21,14,17,7.90
2013,04,21,14,18,7.80
2013,04,21,14,19,7.80
2013,04,21,14,20,7.60
2013,04,21,14,21,7.50
2013,04,21,14,22,7.40
2013,04,21,14,23,7.40
2013,04,21,14,24,7.30
2013,04,21,14,25,7.30
2013,04,21,14,26,7.20
2013,04,21,14,27,7.20
2013,04,21,14,28,7.20
2013,04,21,14,29,7.10
2013,04,21,14,30,7.10
2013,04,21,14,31,7.00
2013,04,21,14,32,6.90
2013,04,21,14,33,6.90
2013,04,21,14,34,6.80
2013,04,21,14,35,6.80
2013,04,21,14,36,6.80
2013,04,21,14,37,6.80
2013,04,21,14,38,6.70
2013,04,21,14,39,6.70
2013,04,21,14,40,6.70
2013,04,21,14,41,6.70
2013,04,21,14,42,6.70
2013,04,21,14,43,6.70
2013,04,21,14,44,6.60
2013,04,21,14,45,6.60
2013,04,21,14,46,6.60
2013,04,21,14,47,6.50
2013,04,21,14,48,6.50
2013,04,21,14,49,6.40
2013,04,21,14,50,6.40
2013,04,21,14,51,6.30
2013,04,21,14,52,6.30
2013,04,21,14,53,6.20
2013,04,21,14,54,6.20
2013,04,21,14,55,6.10
2013,04,21,14,56,6.10
2013,04,21,14,57,6.10
2013,04,21,14,58,6.10
2013,04,21,14,59,6.00
2013,04,21,15,00,6.00
2013,04,21,15,01,5.90
2013,04,21,15,02,5.90
2013,04,21,15,03,5.90
2013,04,21,15,04,5.90
2013,04,21,15,05,5.80
2013,04,21,15,06,5.80
2013,04,21,15,07,5.80
2013,04,21,15,08,5.80
2013,04,21,15,09,5.80
2013,04,21,15,10,5.70
2013,04,21,15,11,5.70
2013,04,21,15,12,5.70
2013,04,21,15,13,5.70
2013,04,21,15,14,5.60
2013,04,21,15,15,5.60
2013,04,21,15,16,5.60
2013,04,21,15,17,5.60
2013,04,21,15,18,5.60
2013,04,21,15,19,5.60
2013,04,21,15,20,5.60
2013,04,21,15,21,5.60
2013,04,21,15,22,5.60
2013,04,21,15,23,5.60
2013,04,21,15,24,5.60
2013,04,21,15,25,5.60
2013,04,21,15,26,5.60
2013,04,21,15,27,5.50
2013,04,21,15,28,5.50
2013,04,21,15,29,5.50
2013,04,21,15,30,5.50
2013,04,21,15,31,5.50
2013,04,21,15,32,5.50
2013,04,21,15,33,5.50
2013,04,21,15,34,5.50
2013,04,21,15,35,5.50
2013,04,21,15,36,5.50
2013,04,21,15,37,5.50
2013,04,21,15,38,5.50
2013,04,21,15,39,5.50
2013,04,21,15,40,5.50
2013,04,21,15,41,5.50
2013,04,21,15,42,5.50
2013,04,21,15,43,5.50
2013,04,21,15,44,5.50
2013,04,21,15,45,5.40
2013,04,21,15,46,5.40
2013,04,21,15,47,5.40
2013,04,21,15,48,5.40
2013,04,21,15,49,5.40
2013,04,21,15,50,5.40
2013,04,21,15,51,5.50
2013,04,21,15,52,5.50
2013,04,21,15,53,5.50
2013,04,21,15,54,5.50
2013,04,21,15,55,5.50
2013,04,21,15,56,5.50
2013,04,21,15,57,5.60
2013,04,21,15,58,5.60
2013,04,21,15,59,5.60
2013,04,21,16,00,5.60
2013,04,21,16,01,5.60
2013,04,21,16,02,5.70
2013,04,21,16,03,5.70
2013,04,21,16,04,5.80
2013,04,21,16,05,5.80
2013,04,21,16,06,5.80
2013,04,21,16,07,5.80
2013,04,21,16,08,5.90
2013,04,21,16,09,5.90
2013,04,21,16,10,5.90
2013,04,21,16,11,5.90
2013,04,21,16,12,6.00
2013,04,21,16,13,6.00
2013,04,21,16,14,6.00
2013,04,21,16,15,6.00
2013,04,21,16,16,6.00
2013,04,21,16,17,6.00
2013,04,21,16,18,6.00
2013,04,21,16,19,6.00
2013,04,21,16,20,6.00
2013,04,21,16,21,6.00
2013,04,21,16,22,6.00
2013,04,21,16,23,6.00
2013,04,21,16,24,6.00
2013,04,21,16,25,6.10
2013,04,21,16,26,6.10
2013,04,21,16,27,6.10
2013,04,21,16,28,6.10
2013,04,21,16,29,6.10
2013,04,21,16,30,6.10
2013,04,21,16,31,6.10
2013,04,21,16,32,6.10
2013,04,21,16,33,6.10
2013,04,21,16,34,6.20
2013,04,21,16,35,6.20
2013,04,21,16,36,6.20
2013,04,21,16,37,6.20
2013,04,21,16,38,6.20
2013,04,21,16,39,6.20
2013,04,21,16,40,6.20
2013,04,21,16,41,6.20
2013,04,21,16,42,6.20
2013,04,21,16,43,6.20
2013,04,21,16,44,6.20
2013,04,21,16,45,6.20
2013,04,21,16,46,6.20
2013,04,21,16,47,6.20
2013,04,21,16,48,6.30
2013,04,21,16,49,6.30
2013,04,21,16,50,6.30
2013,04,21,16,51,6.30
2013,04,21,16,52,6.30
2013,04,21,16,53,6.30
2013,04,21,16,54,6.30
2013,04,21,16,55,6.30
2013,04,21,16,56,6.30
2013,04,21,16,57,6.30
2013,04,21,16,58,6.30
2013,04,21,16,59,6.30
2013,04,21,17,00,6.30
2013,04,21,17,01,6.30
2013,04,21,17,02,6.30
2013,04,21,17,03,6.30
2013,04,21,17,04,6.30
2013,04,21,17,05,6.30
2013,04,21,17,06,6.30
2013,04,21,17,07,6.30
2013,04,21,17,08,6.30
2013,04,21,17,09,6.30
2013,04,21,17,10,6.30
2013,04,21,17,11,6.30
2013,04,21,17,12,6.30
2013,04,21,17,13,6.30
2013,04,21,17,14,6.30
2013,04,21,17,15,6.40
2013,04,21,17,16,6.40
2013,04,21,17,17,6.40
2013,04,21,17,18,6.40
2013,04,21,17,19,6.40
2013,04,21,17,20,6.50
2013,04,21,17,21,6.40
2013,04,21,17,22,6.40
2013,04,21,17,23,6.40
2013,04,21,17,24,6.40
2013,04,21,17,25,6.40
2013,04,21,17,26,6.40
2013,04,21,17,27,6.40
2013,04,21,17,28,6.40
2013,04,21,17,29,6.40
2013,04,21,17,30,6.40
2013,04,21,17,31,6.40
2013,04,21,17,32,6.40
2013,04,21,17,33,6.40
2013,04,21,17,34,6.40
2013,04,21,17,35,6.40
2013,04,21,17,36,6.40
2013,04,21,17,37,6.40
2013,04,21,17,38,6.50
2013,04,21,17,39,6.50
2013,04,21,17,40,6.50
2013,04,21,17,41,6.50
2013,04,21,17,42,6.60
2013,04,21,17,43,6.60
2013,04,21,17,44,6.60
2013,04,21,17,45,6.60
2013,04,21,17,46,6.60
2013,04,21,17,47,6.60
2013,04,21,17,48,6.60
2013,04,21,17,49,6.60
2013,04,21,17,50,6.60
2013,04,21,17,51,6.60
2013,04,21,17,52,6.70
2013,04,21,17,53,6.70
2013,04,21,17,54,6.70
2013,04,21,17,55,6.70
2013,04,21,17,56,6.70
2013,04,21,17,57,6.70
2013,04,21,17,58,6.80
2013,04,21,17,59,6.80
2013,04,21,18,00,6.80
2013,04,21,18,01,6.80
2013,04,21,18,02,6.80
2013,04,21,18,03,6.80